TIANLIAN 1-04

Last updated on Tue Jul 08 2025 00:02:47 GMT+0000 (Coordinated Universal Time)

1 41869U 16072A 25188.55700995 .00000048 00000+0 00000+0 0 9998 2 41869 0.0357 321.9227 0044521 204.5943 136.5340 1.00272257 31848
UTC large
Height (km)
Speed (km/s)
/
Latitude / Longitude
Inclination (degrees)
Orbital Period (minutes)
Azimuth
Elevation
Range (km)
Doppler Factor

Next 0 passes for location: London (51.5072 / 0.1276)

Sorry there are no passes over London.